Tracking 19847 objects as of 16-Sep-2019
HD Live streaming from Space Station
objects crossing your sky now

SL-14 DEB

Track SL-14 DEB now!
10-day predictions


NORAD ID: 19175
Int'l Code: 1978-100S
Perigee: 1,060.0 km
Apogee: 1,527.9 km
Inclination: 82.4 °
Period: 111.3 minutes
Semi major axis: 7664 km
RCS: 0.0795 m2 (small)
Launch date: October 26, 1978
Source: Commonwealth of Independent States (former USSR) (CIS)
Launch site: PLESETSK MISSILE AND SPACE COMPLEX (PKMTR)

Note: This is SATELLITE DEBRIS
aabbcc
Your satellite tracking list
Your tracking list is empty




NASA's NSSDC Master Catalog

Two Line Element Set (TLE):
1 19175U 78100S   19259.49482703  .00005205  00000-0  15283-1 0  9994
2 19175  82.4139 168.6100 0305205  59.3386  60.5767 12.93710403438302
Source of the keplerian elements: AFSPC